Weather History for Ironwood, MI

Change the Weather History Date:

Wednesday, December 25, 2013

  Actual Average Record
Temperature  
Mean Temperature 12 °F -  
Max Temperature 15 °F 21 °F 37 °F (1999)
Min Temperature 8 °F 8 °F -14 °F (1996)
Degree Days  
Heating Degree Days 54    
Moisture  
Dew Point 6 °F    
Average Humidity 75    
Maximum Humidity 86    
Minimum Humidity 62    
Precipitation  
Precipitation 0.00 in - - ()
Sea Level Pressure  
Sea Level Pressure 29.95 in    
Wind  
Wind Speed 9 mph (WSW)    
Max Wind Speed 16 mph    
Max Gust Speed 21 mph    
Visibility 6 miles    
Events      
Averages and records for this station are not official NWS values.
T = Trace of Precipitation, MM = Missing Value Source: NWS Daily Summary

Daily Weather History Graph

Daily Weather History Graph

Search for Another Location

Airport:

Trip Planner

Search our weather history database for the weather conditions in past years. The results will help you decide how hot, cold, wet, or windy it might be!

Date:

Astronomy

Dec. 25, 2013 Rise Set
Actual Time 7:43 AM CST 4:18 PM CST
Civil Twilight 7:08 AM CST 4:53 PM CST
Nautical Twilight 6:29 AM CST 5:31 PM CST
Astronomical Twilight 5:53 AM CST 6:08 PM CST
Moon No Moon Rise 11:40 AM CST (12/25)
Length of Visible Light 9h 45m
Length of Day
8h 35m
Waning Gibbous, 48% of the Moon is Illuminated
Dec 25
Waning Gibbous
Jan 1
New
Jan 7
First Quarter
Jan 15
Full
Jan 23
Last Quarter

Hourly Weather History & Observations

Time (CST) Temp. Windchill Dew Point Humidity Pressure Visibility Wind Dir Wind Speed Gust Speed Precip Events Conditions
12:15 AM 12.2 °F 1.7 °F 6.8 °F 79% 30.04 in 1.2 mi South 6.9 mph - N/A   Overcast
12:35 AM 12.2 °F 1.7 °F 6.8 °F 79% 30.02 in 1.5 mi South 6.9 mph - N/A   Overcast
12:55 AM 12.2 °F -1.8 °F 6.8 °F 79% 30.01 in 2.0 mi South 11.5 mph 17.3 mph N/A   Overcast
1:15 AM 12.2 °F -1.0 °F 6.8 °F 79% 30.01 in 2.0 mi SSW 10.4 mph 16.1 mph N/A   Overcast
1:35 AM 12.2 °F -1.0 °F 5.0 °F 73% 30.00 in 1.8 mi SSW 10.4 mph - N/A   Overcast
1:55 AM 12.2 °F -1.0 °F 5.0 °F 73% 29.99 in 2.5 mi SSW 10.4 mph - N/A   Overcast
2:15 AM 12.2 °F -1.0 °F 6.8 °F 79% 29.99 in 2.0 mi SSW 10.4 mph - N/A   Overcast
2:35 AM 12.2 °F 0.7 °F 5.0 °F 73% 29.99 in 8.0 mi SSW 8.1 mph - N/A   Overcast
2:55 AM 12.2 °F 0.7 °F 1.4 °F 62% 29.99 in 10.0 mi SW 8.1 mph 18.4 mph N/A   Overcast
3:15 AM 10.4 °F -5.4 °F 3.2 °F 73% 29.98 in 10.0 mi SW 13.8 mph - N/A   Overcast
3:35 AM 10.4 °F -5.4 °F 3.2 °F 73% 29.97 in 10.0 mi SW 13.8 mph - N/A   Overcast
3:55 AM 10.4 °F -3.3 °F 1.4 °F 67% 29.97 in 10.0 mi SW 10.4 mph - N/A   Overcast
4:15 AM 10.4 °F -4.1 °F 1.4 °F 67% 29.97 in 10.0 mi SW 11.5 mph 19.6 mph N/A   Overcast
4:35 AM 10.4 °F -5.4 °F 3.2 °F 73% 29.97 in 10.0 mi SW 13.8 mph - N/A   Overcast
4:55 AM 10.4 °F -1.5 °F 3.2 °F 73% 29.96 in 8.0 mi SW 8.1 mph - N/A   Overcast
5:15 AM 10.4 °F -4.8 °F -0.4 °F 62% 29.96 in 10.0 mi SW 12.7 mph - N/A   Overcast
5:35 AM 8.6 °F -4.7 °F 1.4 °F 73% 29.96 in 8.0 mi SW 9.2 mph - N/A   Overcast
5:55 AM 8.6 °F -5.5 °F 1.4 °F 73% 29.95 in 10.0 mi SW 10.4 mph - N/A   Overcast
6:15 AM 8.6 °F -3.7 °F 1.4 °F 73% 29.95 in 10.0 mi SW 8.1 mph - N/A   Overcast
6:35 AM 8.6 °F -7.0 °F 1.4 °F 73% 29.95 in 10.0 mi SW 12.7 mph - N/A   Overcast
6:55 AM 8.6 °F -5.5 °F 1.4 °F 73% 29.95 in 10.0 mi SW 10.4 mph - N/A   Overcast
7:15 AM 8.6 °F -4.7 °F 3.2 °F 79% 29.96 in 5.0 mi SW 9.2 mph - N/A   Overcast
7:35 AM 8.6 °F -2.6 °F 1.4 °F 73% 29.96 in 5.0 mi SW 6.9 mph - N/A   Overcast
7:55 AM 8.6 °F -5.5 °F 1.4 °F 73% 29.96 in 10.0 mi SW 10.4 mph - N/A   Overcast
8:15 AM 8.6 °F -3.7 °F 1.4 °F 73% 29.95 in 5.0 mi SW 8.1 mph - N/A   Overcast
8:35 AM 8.6 °F -3.7 °F 3.2 °F 79% 29.96 in 5.0 mi SW 8.1 mph - N/A   Overcast
8:55 AM 8.6 °F -3.7 °F 3.2 °F 79% 29.95 in 0.5 mi SW 8.1 mph - N/A   Overcast
9:15 AM 10.4 °F -2.4 °F 5.0 °F 79% 29.96 in 5.0 mi SW 9.2 mph - N/A   Overcast
9:35 AM 10.4 °F -0.4 °F 3.2 °F 73% 29.96 in 0.5 mi SW 6.9 mph - N/A   Overcast
9:55 AM 12.2 °F -1.8 °F 3.2 °F 67% 29.97 in 9.0 mi WSW 11.5 mph 17.3 mph N/A   Overcast
10:15 AM 12.2 °F -1.8 °F 6.8 °F 79% 29.97 in 7.0 mi WSW 11.5 mph - N/A   Overcast
10:35 AM 12.2 °F -1.8 °F 5.0 °F 73% 29.97 in 10.0 mi WSW 11.5 mph - N/A   Overcast
10:55 AM 12.2 °F -1.8 °F 5.0 °F 73% 29.96 in 10.0 mi WSW 11.5 mph - N/A   Overcast
11:15 AM 12.2 °F -0.2 °F 6.8 °F 79% 29.96 in 10.0 mi WSW 9.2 mph 16.1 mph N/A   Overcast
11:35 AM 14.0 °F -0.2 °F 5.0 °F 67% 29.95 in 9.0 mi WSW 12.7 mph - N/A   Overcast
11:55 AM 15.8 °F 3.4 °F 6.8 °F 68% 29.95 in 10.0 mi WSW 10.4 mph - N/A   Overcast
12:15 PM 15.8 °F 3.4 °F 6.8 °F 68% 29.94 in 10.0 mi WSW 10.4 mph - N/A   Overcast
12:35 PM 15.8 °F 3.4 °F 6.8 °F 68% 29.94 in 10.0 mi West 10.4 mph - N/A   Overcast
12:55 PM 15.8 °F 3.4 °F 6.8 °F 68% 29.93 in 8.0 mi West 10.4 mph - N/A   Overcast
1:15 PM 15.8 °F 5.1 °F 6.8 °F 68% 29.93 in 10.0 mi West 8.1 mph - N/A   Overcast
1:35 PM 15.8 °F 4.2 °F 6.8 °F 68% 29.92 in 10.0 mi West 9.2 mph - N/A   Overcast
1:55 PM 15.8 °F 6.1 °F 8.6 °F 73% 29.92 in 9.0 mi West 6.9 mph - N/A   Overcast
2:15 PM 15.8 °F 4.2 °F 8.6 °F 73% 29.92 in 8.0 mi West 9.2 mph - N/A   Overcast
2:35 PM 15.8 °F 5.1 °F 8.6 °F 73% 29.92 in 7.0 mi West 8.1 mph - N/A   Overcast
2:55 PM 15.8 °F 7.2 °F 8.6 °F 73% 29.92 in 6.0 mi West 5.8 mph - N/A   Overcast
3:15 PM 15.8 °F 8.6 °F 10.4 °F 79% 29.92 in 3.0 mi WSW 4.6 mph - N/A   Overcast
3:35 PM 15.8 °F 8.6 °F 10.4 °F 79% 29.93 in 2.0 mi WSW 4.6 mph - N/A   Overcast
3:55 PM 15.8 °F 7.2 °F 10.4 °F 79% 29.93 in 2.0 mi WSW 5.8 mph - N/A   Overcast
4:15 PM 15.8 °F 10.2 °F 10.4 °F 79% 29.93 in 1.5 mi WSW 3.5 mph - N/A   Overcast
4:35 PM 15.8 °F 8.6 °F 10.4 °F 79% 29.93 in 1.8 mi WSW 4.6 mph - N/A   Overcast
4:55 PM 15.8 °F 10.2 °F 10.4 °F 79% 29.93 in 2.0 mi West 3.5 mph - N/A   Overcast
5:15 PM 15.8 °F 10.2 °F 10.4 °F 79% 29.93 in 2.0 mi West 3.5 mph - N/A   Overcast
5:35 PM 15.8 °F 8.6 °F 10.4 °F 79% 29.94 in 2.0 mi West 4.6 mph - N/A   Overcast
5:55 PM 15.8 °F 8.6 °F 10.4 °F 79% 29.94 in 2.5 mi West 4.6 mph - N/A   Overcast
6:15 PM 15.8 °F 6.1 °F 10.4 °F 79% 29.94 in 4.0 mi West 6.9 mph - N/A   Overcast
6:35 PM 15.8 °F 4.2 °F 12.2 °F 86% 29.94 in 5.0 mi West 9.2 mph - N/A   Overcast
6:55 PM 15.8 °F 4.2 °F 10.4 °F 79% 29.94 in 5.0 mi West 9.2 mph - N/A   Overcast
7:15 PM 15.8 °F 3.4 °F 10.4 °F 79% 29.94 in 5.0 mi West 10.4 mph - N/A   Overcast
7:35 PM 15.8 °F 4.2 °F 10.4 °F 79% 29.94 in 4.0 mi West 9.2 mph - N/A   Overcast
7:55 PM 15.8 °F 3.4 °F 10.4 °F 79% 29.94 in 3.0 mi West 10.4 mph - N/A   Overcast
8:15 PM 15.8 °F 3.4 °F 10.4 °F 79% 29.94 in 3.0 mi West 10.4 mph - N/A   Overcast
8:35 PM 15.8 °F 2.7 °F 8.6 °F 73% 29.94 in 4.0 mi West 11.5 mph - N/A   Overcast
8:55 PM 14.0 °F 2.0 °F 8.6 °F 79% 29.94 in 8.0 mi West 9.2 mph - N/A   Overcast
9:15 PM 14.0 °F 1.2 °F 8.6 °F 79% 29.94 in 10.0 mi West 10.4 mph - N/A   Overcast
9:35 PM 14.0 °F 0.5 °F 8.6 °F 79% 29.95 in 10.0 mi West 11.5 mph - N/A   Overcast
9:55 PM 14.0 °F 1.2 °F 8.6 °F 79% 29.95 in 5.0 mi West 10.4 mph - N/A   Overcast
10:15 PM 14.0 °F 2.0 °F 8.6 °F 79% 29.95 in 1.5 mi West 9.2 mph - N/A   Overcast
10:35 PM 14.0 °F 2.0 °F 8.6 °F 79% 29.95 in 3.0 mi West 9.2 mph - N/A   Overcast
10:55 PM 12.2 °F -4.3 °F 8.6 °F 85% 29.96 in 2.0 mi West 16.1 mph 20.7 mph N/A   Overcast
11:15 PM 12.2 °F -2.5 °F 5.0 °F 73% 29.96 in 7.0 mi West 12.7 mph - N/A   Overcast
11:35 PM 12.2 °F -1.8 °F 5.0 °F 73% 29.97 in 5.0 mi West 11.5 mph - N/A   Overcast
11:55 PM 10.4 °F -4.1 °F 5.0 °F 79% 29.96 in 8.0 mi West 11.5 mph - N/A   Overcast